Location: Ar Ranvel
(48.3000°N, 4.8833°W)
Time: 04:29:49
(UTC+00:00)

Cosmos 2322 Rocket - Pass Details

Date: 25 October 2021
Orbit: 832 x 851 km, 71.0° (Epoch: 01 December)

Event Time Altitude Azimuth Distance (km) Brightness Sun altitude
Rises 19:31:43 0° 228° (SW) 3,367 5.9 -23.8°
Reaches altitude 10° 19:34:16 10° 235° (SW) 2,438 5.2 -24.2°
Maximum altitude 19:39:34 43° 306° (NW) 1,164 3.3 -25.1°
Drops below altitude 10° 19:44:55 10° 18° (NNE) 2,459 4.5 -26.0°
Enters shadow 19:45:42 - 21° (NNE) 2,738 4.8 -26.1°
